K0PFX-8 Weather Reports


Display with metric or nautical units.
time (UTC)temp
F
wind
direction
speed
MPH
gust
MPH
rain 1hr
in
rain 24hr
in
rain mn
in
humidity
%
barometer
mb
20180423185242 57 65 7.0 8.0 0.00 0.01 0.09 91 1016.1
20180423183738 57 63 9.0 7.0 0.00 0.01 0.09 90 1016.2
20180423182240 56 66 6.0 3.0 0.00 0.01 0.09 91 1016.1
20180423180738 56 80 7.0 4.0 0.00 0.01 0.09 91 1016.2
20180423175239 55 121 11.0 10.0 0.00 0.01 0.09 91 1016.3
20180423173739 55 31 7.0 5.0 0.00 0.01 0.09 91 1016.3
20180423172242 54 68 7.0 5.0 0.00 0.01 0.09 92 1016.5
20180423170739 54 44 10.0 8.0 0.00 0.01 0.09 93 1016.4
20180423165241 54 91 7.0 9.0 0.01 0.01 0.09 97 1016.5
20180423163737 53 62 9.0 5.0 0.01 0.01 0.09 98 1016.6
20180423162239 52 62 10.0 8.0 0.01 0.01 0.09 99 1016.8
20180423160808 52 37 9.0 7.0 0.01 0.01 0.09 100 1016.8
20180423160737 52 37 9.0 7.0 0.01 0.01 0.09 100 1016.8
20180423155239 52 59 7.0 10.0 0.05 0.01 0.09 100 1016.7
20180423153734 52 37 6.0 6.0 0.05 0.01 0.09 100 1016.7
20180423152237 51 345 7.0 7.0 0.05 0.01 0.09 100 1016.7
20180423150732 50 27 7.0 7.0 0.05 0.01 0.08 99 1016.9
20180423145233 50 8 9.0 8.0 0.00 0.01 0.08 96 1017.1
20180423143731 50 60 5.0 9.0 0.00 0.01 0.08 93 1017.1
20180423142233 50 34 7.0 8.0 0.00 0.01 0.06 90 1017.1
20180423140728 51 34 8.0 11.0 0.00 0.01 0.04 91 1017.1
20180423135231 51 41 9.0 10.0 0.00 0.01 0.03 88 1017.0
20180423133726 52 70 7.0 7.0 0.00 0.01 0.03 86 1017.3
20180423132228 52 10 12.0 7.0 0.00 0.01 0.03 79 1017.1
20180423130726 52 27 6.0 9.0 0.00 0.01 0.03 76 1017.1
20180423125229 52 34 7.0 5.0 0.01 0.01 0.03 79 1017.1
20180423123722 51 39 9.0 11.0 0.01 0.01 0.03 78 1017.0
20180423122225 51 52 7.0 7.0 0.01 0.01 0.03 80 1017.0
20180423120725 50 34 8.0 10.0 0.01 0.01 0.03 81 1016.9
20180423115226 50 4 8.0 9.0 0.01 0.01 0.03 85 1017.0
20180423113724 50 7 6.0 9.0 0.01 0.01 0.03 85 1017.0
20180423112225 51 31 6.0 6.0 0.01 0.01 0.02 85 1017.0
20180423110718 52 69 5.0 7.0 0.01 0.01 0.02 79 1017.0
20180423103715 53 68 5.0 5.0 0.01 0.01 0.01 74 1016.5
20180423102217 53 35 7.0 8.0 0.01 0.01 0.01 74 1016.4
20180423100714 53 21 7.0 9.0 0.01 0.01 0.01 72 1016.5
20180423095217 54 24 5.0 5.0 0.00 0.01 0.00 72 1016.7
20180423093715 54 342 1.0 3.0 0.00 0.01 0.00 70 1016.6
20180423092217 54 24 5.0 4.0 0.00 0.01 0.00 72 1016.8
20180423090713 54 326 5.0 4.0 0.00 0.01 0.00 72 1016.9
20180423085215 55 28 5.0 3.0 0.00 0.01 0.00 69 1016.9
20180423083710 55 37 4.0 5.0 0.00 0.01 0.00 64 1016.9
20180423082212 56 20 3.0 0.0 0.00 0.01 0.00 59 1017.0
20180423080706 57 120 3.0 9.0 0.00 0.01 0.00 61 1017.1
20180423075208 57 62 4.0 3.0 0.00 0.01 0.00 55 1017.0
20180423073705 57 35 4.0 7.0 0.00 0.01 0.00 57 1017.1
20180423072207 58 94 0.0 0.0 0.00 0.01 0.00 60 1017.1
20180423070701 58 94 2.0 0.0 0.00 0.01 0.00 59 1017.0
20180423065203 58 41 2.0 0.0 0.00 0.01 0.00 59 1017.1
20180423063700 58 59 3.0 0.0 0.00 0.01 0.00 61 1017.1
20180423062203 58 66 7.0 4.0 0.00 0.01 0.00 61 1017.3
20180423060701 58 48 5.0 6.0 0.00 0.01 0.00 63 1017.4
20180423055204 58 115 4.0 8.0 0.00 0.01 0.00 65 1017.4
20180423053657 58 75 5.0 6.0 0.00 0.01 0.00 66 1017.3
20180423052200 58 94 4.0 3.0 0.00 0.01 0.00 70 1017.2
20180423050653 58 97 5.0 5.0 0.00 0.01 0.00 71 1017.2
20180423045156 58 97 4.0 7.0 0.00 0.00 0.01 72 1017.1
20180423043649 58 83 6.0 8.0 0.00 0.00 0.01 72 1017.1
20180423042151 58 56 9.0 11.0 0.00 0.00 0.01 74 1017.1
20180423040644 58 105 6.0 8.0 0.00 0.00 0.01 77 1017.1
20180423035145 58 72 7.0 5.0 0.00 0.00 0.01 79 1017.2
20180423033639 58 76 8.0 6.0 0.00 0.00 0.01 80 1017.3
20180423032141 58 53 1.0 7.0 0.00 0.00 0.01 86 1017.3
20180423030637 59 118 10.0 7.0 0.00 0.00 0.01 81 1017.6
20180423025138 60 45 6.0 10.0 0.00 0.00 0.01 75 1017.5
20180423023631 60 53 6.0 8.0 0.00 0.00 0.01 70 1017.4
20180423022133 59 69 4.0 3.0 0.00 0.00 0.01 68 1017.3
20180423020632 59 34 3.0 0.0 0.00 0.00 0.01 70 1017.3
20180423015134 59 76 2.0 0.0 0.00 0.00 0.01 68 1017.4
20180423013629 59 101 3.0 6.0 0.00 0.00 0.01 68 1017.2
20180423012131 59 60 3.0 2.0 0.00 0.00 0.01 70 1017.2
20180423010624 58 32 5.0 7.0 0.00 0.00 0.01 69 1017.1
20180423005126 58 53 3.0 6.0 0.00 0.00 0.01 68 1017.1
20180423003620 58 41 5.0 3.0 0.00 0.00 0.01 71 1017.1
20180423002122 58 42 4.0 5.0 0.00 0.00 0.01 73 1017.3
20180423000613 58 34 6.0 8.0 0.00 0.00 0.01 75 1017.4
20180422235115 58 28 5.0 4.0 0.01 0.00 0.01 73 1017.4
20180422233609 59 31 5.0 7.0 0.01 0.00 0.01 74 1017.4
20180422232111 58 42 3.0 3.0 0.01 0.00 0.01 74 1017.5
20180422230605 58 30 7.0 8.0 0.01 0.00 0.01 72 1017.5
20180422225107 58 59 6.0 4.0 0.00 0.00 0.01 75 1017.5
20180422223604 58 4 4.0 4.0 0.00 0.00 0.00 75 1017.5
20180422222106 58 14 4.0 6.0 0.00 0.00 0.00 75 1017.7
20180422220602 58 68 4.0 3.0 0.00 0.00 0.00 75 1017.9
20180422215104 58 59 5.0 3.0 0.00 0.00 0.00 69 1018.0
20180422213557 58 32 4.0 7.0 0.00 0.00 0.00 67 1017.9
20180422212100 58 27 6.0 5.0 0.00 0.00 0.00 67 1018.0
20180422210552 59 25 4.0 4.0 0.00 0.00 0.00 61 1018.1
20180422205052 59 98 6.0 5.0 0.00 0.00 0.00 51 1018.2
20180422202052 60 70 5.0 8.0 0.00 0.00 0.00 49 1018.3
20180422200546 59 90 6.0 4.0 0.00 0.00 0.00 50 1018.4
20180422195049 58 27 8.0 10.0 0.00 0.00 0.00 53 1018.6
20180422193540 58 70 5.0 5.0 0.00 0.00 0.00 56 1018.9
20180422192043 58 68 9.0 5.0 0.00 0.00 0.00 59 1019.2
20180422190541 58 41 7.0 6.0 0.00 0.00 0.00 58 1019.3